Location: Newark
(25.6108°S, 54.5803°W)
Time: 08:47:20
(UTC+00:00)

Tiros 1 - Pass Details

Date: 30 October 2020
Orbit: 630 x 664 km, 48.4° (Epoch: 29 November)

Event Time Altitude Azimuth Distance (km) Brightness Sun altitude
Rises 02:51:07 0° 248° (WSW) 2,996 - -49.8°
Reaches altitude 10° 02:54:19 10° 270° (W) 2,071 - -49.9°
Maximum altitude 02:57:10 16° 307° (NW) 1,704 - -50.0°
Drops below altitude 10° 02:59:59 10° 344° (NNW) 2,045 - -50.1°
Sets 03:03:07 0° 5° (N) 2,939 - -50.2°
